Cecil Field, FL

11:55 AM EDT on September 23, 2017 (GMT -0400)
Cecil

Weather History for KVQQ - August, 2014

Change the Weather History Date:

Tuesday, August 19, 2014

  Actual Average (KNIP) Record (KNIP)
Temperature  
Mean Temperature 83 °F -  
Max Temperature 93 °F 88 °F 98 °F (2010)
Min Temperature 73 °F 73 °F 73 °F (2004)
Cooling Degree Days 18    
Growing Degree Days 33 (Base 50)    
Moisture  
Dew Point 73 °F    
Average Humidity 85    
Maximum Humidity 100    
Minimum Humidity 49    
Precipitation  
Precipitation 0.00 in - - ()
Sea Level Pressure  
Sea Level Pressure 29.98 in    
Wind  
Wind Speed 4 mph (WSW)    
Max Wind Speed 17 mph    
Max Gust Speed 16 mph    
Visibility 10 miles    
Events      
Averages and records for this station are not official NWS values.
T = Trace of Precipitation, MM = Missing Value Source: NWS Daily Summary

Daily Weather History Graph

Daily Weather History Graph

Search for Another Location

Airport or City:

Trip Planner

Search our weather history database for the weather conditions in past years. The results will help you decide how hot, cold, wet, or windy it might be!

Date:

Astronomy

Aug. 19, 2014 Rise Set
Actual Time 6:56 AM EDT 8:04 PM EDT
Civil Twilight 6:31 AM EDT 8:29 PM EDT
Nautical Twilight 6:02 AM EDT 8:59 PM EDT
Astronomical Twilight 5:31 AM EDT 9:29 PM EDT
Moon 1:55 AM EDT (8/19) 3:52 PM EDT (8/19)
Length of Visible Light 13h 57m
Length of Day
13h 07m
Waning Crescent, 29% of the Moon is Illuminated
Aug 19
Waning Crescent
Aug 25
New
Sep 2
First Quarter
Sep 8
Full
Sep 15
Last Quarter

Hourly Weather History & Observations

Time (EDT) Temp. Heat Index Dew Point Humidity Pressure Visibility Wind Dir Wind Speed Gust Speed Precip Events Conditions
12:15 AM 73.4 °F - 73.4 °F 100% 29.98 in 10.0 mi Calm Calm - N/A   Clear
12:55 AM 73.4 °F - 73.4 °F 100% 29.98 in 10.0 mi SSW 5.8 mph - N/A   Clear
1:15 AM 75.2 °F - 73.4 °F 94% 29.98 in 10.0 mi SW 5.8 mph - N/A   Clear
1:35 AM 75.2 °F - 73.4 °F 94% 29.97 in 10.0 mi SW 5.8 mph - N/A   Clear
1:55 AM 75.2 °F - 73.4 °F 94% 29.97 in 10.0 mi SSW 4.6 mph - N/A   Clear
2:15 AM 75.2 °F - 73.4 °F 94% 29.97 in 10.0 mi SW 3.5 mph - N/A   Clear
2:35 AM 75.2 °F - 73.4 °F 94% 29.97 in 10.0 mi SSW 3.5 mph - N/A   Clear
3:15 AM 75.2 °F - 73.4 °F 94% 29.97 in 10.0 mi Calm Calm - N/A   Clear
3:35 AM 75.2 °F - 73.4 °F 94% 29.96 in 10.0 mi SSW 3.5 mph - N/A   Clear
3:55 AM 75.2 °F - 73.4 °F 94% 29.96 in 10.0 mi West 3.5 mph - N/A   Clear
4:15 AM 73.4 °F - 73.4 °F 100% 29.96 in 10.0 mi Calm Calm - N/A   Clear
4:35 AM 73.4 °F - 73.4 °F 100% 29.96 in 10.0 mi Calm Calm - N/A   Clear
4:55 AM 73.4 °F - 73.4 °F 100% 29.96 in 10.0 mi Calm Calm - N/A   Clear
5:15 AM 73.4 °F - 73.4 °F 100% 29.96 in 10.0 mi Calm Calm - N/A   Clear
5:35 AM 75.2 °F - 73.4 °F 94% 29.96 in 10.0 mi SW 4.6 mph - N/A   Clear
5:55 AM 75.2 °F - 73.4 °F 94% 29.97 in 10.0 mi SW 4.6 mph - N/A   Clear
6:15 AM 75.2 °F - 73.4 °F 94% 29.97 in 10.0 mi SW 4.6 mph - N/A   Clear
6:35 AM 75.2 °F - 73.4 °F 94% 29.98 in 10.0 mi SW 3.5 mph - N/A   Clear
6:50 AM 75.2 °F - 73.4 °F 94% 29.98 in 10.0 mi SW 3.5 mph - N/A   Clear
7:50 AM 75.2 °F - 75.2 °F 100% 30.00 in 10.0 mi WSW 4.6 mph - N/A   Clear
8:50 AM 80.6 °F 86.2 °F 75.2 °F 84% 30.02 in 10.0 mi WSW 8.1 mph - N/A   Clear
9:50 AM 80.6 °F 86.2 °F 75.2 °F 84% 30.02 in 10.0 mi West 10.4 mph - N/A   Mostly Cloudy
10:50 AM 86.0 °F 95.1 °F 75.2 °F 70% 30.04 in 10.0 mi West 17.3 mph - N/A   Mostly Cloudy
11:50 AM 89.6 °F 98.2 °F 73.4 °F 59% 30.02 in 10.0 mi West 8.1 mph - N/A   Mostly Cloudy
12:50 PM 91.4 °F 100.1 °F 73.4 °F 55% 30.01 in 10.0 mi West 15.0 mph - N/A   Mostly Cloudy
1:50 PM 91.4 °F 98.4 °F 71.6 °F 52% 29.98 in 10.0 mi WNW 10.4 mph 16.1 mph N/A   Scattered Clouds
2:50 PM 89.6 °F 96.2 °F 71.6 °F 55% 29.97 in 10.0 mi WNW 13.8 mph - N/A   Scattered Clouds
3:50 PM 93.2 °F 100.5 °F 71.6 °F 49% 29.97 in 10.0 mi West 15.0 mph - N/A   Scattered Clouds
4:50 PM 91.4 °F 98.4 °F 71.6 °F 52% 29.97 in 10.0 mi WNW 16.1 mph - N/A   Scattered Clouds
5:50 PM 87.8 °F 93.8 °F 71.6 °F 58% 29.96 in 10.0 mi WNW 12.7 mph - N/A   Clear
6:50 PM 89.6 °F 98.2 °F 73.4 °F 59% 29.95 in 10.0 mi West 6.9 mph - N/A   Clear
7:50 PM 84.2 °F 89.6 °F 71.6 °F 66% 29.95 in 10.0 mi SW 3.5 mph - N/A   Clear
8:15 PM 80.6 °F 85.4 °F 73.4 °F 79% 29.95 in 10.0 mi Calm Calm - N/A   Clear
8:35 PM 78.8 °F - 73.4 °F 83% 29.96 in 10.0 mi Calm Calm - N/A   Clear
8:55 PM 80.6 °F 85.4 °F 73.4 °F 79% 29.96 in 10.0 mi Calm Calm - N/A   Clear
9:15 PM 77.0 °F - 73.4 °F 89% 29.96 in 10.0 mi Calm Calm - N/A   Clear
9:55 PM 75.2 °F - 73.4 °F 94% 29.97 in 10.0 mi Calm Calm - N/A   Clear
10:15 PM 75.2 °F - 73.4 °F 94% 29.97 in 10.0 mi Calm Calm - N/A   Clear
10:35 PM 75.2 °F - 73.4 °F 94% 29.97 in 10.0 mi Calm Calm - N/A   Clear
11:15 PM 73.4 °F - 73.4 °F 100% 29.98 in 10.0 mi Calm Calm - N/A   Clear
11:35 PM 73.4 °F - 73.4 °F 100% 29.99 in 10.0 mi Calm Calm - N/A   Clear
11:55 PM 73.4 °F - 71.6 °F 94% 30.00 in 10.0 mi Calm Calm - N/A   Clear